Location: Kershaw
(34.5481°N, 80.5823°W)
Time: 13:52:17
(UTC+00:00)

Transit 4A - Pass Details

Date: 05 October 2022
Orbit: 871 x 972 km, 66.8° (Epoch: 29 November)

Event Time Altitude Azimuth Distance (km) Brightness Sun altitude
Rises 01:55:43 0° 189° (S) 3,621 - -35.9°
Reaches altitude 10° 01:58:21 10° 184° (S) 2,666 - -36.5°
Maximum altitude 02:04:18 49° 111° (ESE) 1,193 - -37.6°
Drops below altitude 10° 02:10:07 10° 38° (NE) 2,614 - -38.7°
Sets 02:12:40 0° 33° (NNE) 3,544 - -39.1°
